Regional Weather Roundup
Issued by NWS Mt. Holly, NJ

Home | Current Version | Previous Version | Text Only | Print | Product List | Glossary On
Versions: 1 2 3 4 5 6 7 8 9 10 11 12 13 14 15 16 17 18 19 20 21 22 23 24 25 26 27 28 29 30 31 32 33 34 35 36 37 38 39 40 41 42 43 44 45 46 47 48 49 50
000
ASUS41 KPHI 211210
RWRPHI

REGIONAL WEATHER ROUNDUP
NATIONAL WEATHER SERVICE MOUNT HOLLY NJ
800 AM EDT SUN SEP 21 2014

NOTE:  "FAIR" INDICATES FEW OR NO CLOUDS BELOW 12,000 FEET WITH NO
SIGNIFICANT WEATHER AND/OR OBSTRUCTIONS TO VISIBILITY.

 * = STATION DOES NOT REPORT PRECIPITATION (E.G. RAIN, SNOW, ETC.)
        OR FOG.

NJZ015>026-211300-
SOUTHERN NEW JERSEY

CITY           SKY/WX    TMP DP  RH WIND       PRES   REMARKS
POMONA         PTSUNNY   66  66 100 CALM      29.89S FOG
6HR MIN TEMP:  65; 6HR MAX TEMP:  69;

RIO GRANDE*    CLOUDY    70  64  83 NE6       29.88F
MILLVILLE      CLOUDY    67  65  93 CALM      29.88F
WRIGHTSTOWN    CLOUDY    64  64 100 N3        29.88S FOG
MOUNT HOLLY    FOG       64  64 100 MISG      29.91R VSB 1/4
TRENTON        CLOUDY    65  63  93 CALM      29.90F FOG
6HR MIN TEMP:  64; 6HR MAX TEMP:  65; 6HR PCP: TRACE;


$$
NJZ001>014-211300-
NORTHERN NEW JERSEY

CITY           SKY/WX    TMP DP  RH WIND       PRES   REMARKS
SUSSEX         CLOUDY    64  62  93 CALM      29.92S FOG
ANDOVER*         N/A     63  60  90 NW3       29.92S
MORRISTOWN     CLOUDY    66  66 100 CALM      29.92F FOG
NEWARK         PTSUNNY   69  67  93 CALM      29.90F FOG
TETERBORO      CLOUDY    70  64  83 CALM      29.89F FOG
CALDWELL       CLOUDY    65  63  93 CALM      29.92S FOG
SOMERVILLE     CLOUDY    65  63  93 NW3       29.90S FOG
ALLAIRE*       CLOUDY    66  63  88 NW5       29.90S VSB<1/4
TOMS RIVER*    CLOUDY    66  64  94 CALM      29.89F VSB 1/2

$$
PAZ043-044-047-054-055-060>062-066>071-211300-
EASTERN PENNSYLVANIA

CITY           SKY/WX    TMP DP  RH WIND       PRES   REMARKS
PHILADELPHIA   PTSUNNY   68  65  90 NE6       29.90F FOG
6HR MIN TEMP:  65; 6HR MAX TEMP:  69;

NORTH PHILA    CLOUDY    68  63  84 NE5       29.91F HAZE
BLUE BELL      CLOUDY    64  63  94 CALM      29.91S
DOYLESTOWN     CLOUDY    64  63  96 CALM      29.91S
QUAKERTOWN*    CLOUDY    63  59  88 N3        29.93S
POTTSTOWN      CLOUDY    60  59  96 CALM      29.93R FOG
LANCASTER      FOG       61  60  97 CALM      29.91S VSB 1/4
COATESVILLE    FOG       61  61 100 CALM      29.92F VSB<1/4
READING        FOG       60  58  92 CALM      29.91S VSB 3/4
6HR MIN TEMP:  57; 6HR MAX TEMP:  60;

ALLENTOWN      CLOUDY    62  59  90 CALM      29.92S FOG
6HR MIN TEMP:  54; 6HR MAX TEMP:  62;

MOUNT POCONO   CLOUDY    58  56  93 SW5       29.93F FOG
6HR MIN TEMP:  53; 6HR MAX TEMP:  58;

HAZLETON       CLOUDY    61  59  94 CALM      29.95S
WILKES BARRE   SUNNY     59  57  93 CALM      29.90F FOG

$$
DEZALL-MDZ008-012-015-019-020-211300-
DELAWARE AND EASTERN MARYLAND

CITY           SKY/WX    TMP DP  RH WIND       PRES   REMARKS
WILMINGTON     CLOUDY    65  63  93 N3        29.90S
6HR MIN TEMP:  61; 6HR MAX TEMP:  67;

DOVER          CLOUDY    69  69 100 NW8       29.87R
GEORGETOWN     CLOUDY    70  68  93 NE13      29.87F FOG
6HR MIN TEMP:  68; 6HR MAX TEMP:  70;

EASTON         FOG       66  66 100 CALM      29.93R VSB 1/4
PATUXENT       CLOUDY    69  65  86 N7        29.89R
OCEAN CITY     CLOUDY   N/A N/A N/A CALM      29.85F HAZE
WALLOPS ISLAND CLOUDY    71  70  96 N7        29.85S
CAMBRIDGE      CLOUDY    70  64  83 N3        29.88R
SALISBURY      CLOUDY    71  68  90 NE3       29.86S FOG

$$
PAZ001-021-NYZ056-072-MDZ011-DCZ001-211300-
OTHER NEARBY LOCATIONS

CITY           SKY/WX    TMP DP  RH WIND       PRES   REMARKS
HARRISBURG     FOG       61  60  97 E5        29.89F VSB 1/2
STATE COLLEGE  SUNNY     57  55  94 W7        29.87F
WILLIAMSPORT   CLOUDY    64  58  80 E9        29.86F
BINGHAMTON     MOSUNNY   61  56  83 S12       29.87F
NEW YORK CITY  CLOUDY    68  66  93 CALM      29.94S FOG
BALTIMORE      FOG       61  61 100 CALM      29.89F VSB 3/4
WASHINGTON DC  PTSUNNY   65  60  84 N3        29.91R

$$


USA.gov is the U.S. government's official web portal to all federal, state and local government web resources and services.